Tracking 28126 objects as of 2-Oct-2023
HD Live streaming from Space Station
objects crossing your sky now

STARLINK-3883

Track STARLINK-3883 now!
10-day predictions
STARLINK-3883 is classified as:


NORAD ID: 52493
Int'l Code: 2022-049AU
Perigee: 545.9 km
Apogee: 547.8 km
Inclination: 53.2 °
Period: 95.4 minutes
Semi major axis: 6917 km
RCS: Unknown
Launch date: May 6, 2022
Source: United States (US)
Launch site: AIR FORCE EASTERN TEST RANGE (AFETR)
Your satellite tracking list
Your tracking list is empty




NASA's NSSDC Master Catalog

Two Line Element Set (TLE):
1 52493U 22049AU  23274.89615535  .00001975  00000-0  14213-3 0  9996
2 52493  53.2162  83.5582 0001328  89.2723 270.8422 15.08850343 78221
Source of the keplerian elements: AFSPC